TimeCST,TemperatureF,Dew PointF,Humidity,Sea Level PressureIn,VisibilityMPH,Wind Direction,Wind SpeedMPH,Gust SpeedMPH,PrecipitationIn,Events,Conditions,WindDirDegrees,DateUTC
12:15 AM,28.4,14.0,55,30.37,9.0,Calm,Calm,-,N/A,,Clear,0,2013-12-26 06:15:00
12:35 AM,28.4,14.0,55,30.36,9.0,Calm,Calm,-,N/A,,Clear,0,2013-12-26 06:35:00
12:55 AM,28.4,14.0,55,30.37,7.0,North,4.6,-,N/A,,Clear,350,2013-12-26 06:55:00
1:15 AM,28.4,14.0,55,30.38,8.0,Calm,Calm,-,N/A,,Clear,0,2013-12-26 07:15:00
1:35 AM,28.4,14.0,55,30.37,7.0,Calm,Calm,-,N/A,,Clear,0,2013-12-26 07:35:00
1:55 AM,28.4,14.0,55,30.37,7.0,Calm,Calm,-,N/A,,Clear,0,2013-12-26 07:55:00
2:15 AM,28.4,14.0,55,30.38,9.0,Calm,Calm,-,N/A,,Clear,0,2013-12-26 08:15:00
2:35 AM,28.4,14.0,55,30.38,9.0,Calm,Calm,-,N/A,,Clear,0,2013-12-26 08:35:00
2:55 AM,28.4,14.0,55,30.38,7.0,Calm,Calm,-,N/A,,Clear,0,2013-12-26 08:55:00
3:15 AM,28.4,14.0,55,30.38,8.0,Calm,Calm,-,N/A,,Clear,0,2013-12-26 09:15:00
3:35 AM,26.6,14.0,59,30.38,8.0,Calm,Calm,-,N/A,,Clear,0,2013-12-26 09:35:00
3:55 AM,26.6,12.2,55,30.37,7.0,Calm,Calm,-,N/A,,Clear,0,2013-12-26 09:55:00
4:15 AM,26.6,14.0,59,30.38,9.0,Calm,Calm,-,N/A,,Clear,0,2013-12-26 10:15:00
4:35 AM,26.6,14.0,59,30.38,9.0,Calm,Calm,-,N/A,,Clear,0,2013-12-26 10:35:00
4:55 AM,26.6,12.2,55,30.38,7.0,Calm,Calm,-,N/A,,Clear,0,2013-12-26 10:55:00
5:15 AM,26.6,12.2,55,30.39,8.0,Calm,Calm,-,N/A,,Clear,0,2013-12-26 11:15:00
5:35 AM,26.6,12.2,55,30.39,8.0,Calm,Calm,-,N/A,,Clear,0,2013-12-26 11:35:00
5:55 AM,26.6,12.2,55,30.39,7.0,Calm,Calm,-,N/A,,Clear,0,2013-12-26 11:55:00
6:15 AM,26.6,12.2,55,30.40,7.0,Calm,Calm,-,N/A,,Clear,0,2013-12-26 12:15:00
6:35 AM,26.6,12.2,55,30.40,9.0,Calm,Calm,-,N/A,,Clear,0,2013-12-26 12:35:00
6:55 AM,26.6,12.2,55,30.41,8.0,Calm,Calm,-,N/A,,Clear,0,2013-12-26 12:55:00
7:15 AM,26.6,12.2,55,30.41,7.0,NNW,3.5,-,N/A,,Clear,340,2013-12-26 13:15:00
7:35 AM,26.6,12.2,55,30.42,7.0,North,3.5,-,N/A,,Clear,350,2013-12-26 13:35:00
7:55 AM,28.4,14.0,55,30.42,7.0,Calm,Calm,-,N/A,,Clear,0,2013-12-26 13:55:00
8:15 AM,32.0,17.6,55,30.42,7.0,Calm,Calm,-,N/A,,Clear,0,2013-12-26 14:15:00
8:35 AM,33.8,19.4,56,30.42,7.0,North,3.5,-,N/A,,Clear,350,2013-12-26 14:35:00
8:55 AM,35.6,21.2,56,30.43,8.0,North,3.5,-,N/A,,Clear,360,2013-12-26 14:55:00
9:15 AM,37.4,24.8,60,30.43,8.0,North,3.5,-,N/A,,Clear,10,2013-12-26 15:15:00
9:35 AM,39.2,26.6,61,30.44,7.0,North,3.5,-,N/A,,Clear,10,2013-12-26 15:35:00
9:55 AM,42.8,30.2,61,30.44,8.0,North,6.9,-,N/A,,Clear,10,2013-12-26 15:55:00
10:15 AM,46.4,32.0,57,30.44,9.0,NE,3.5,-,N/A,,Clear,40,2013-12-26 16:15:00
10:35 AM,48.2,32.0,54,30.44,8.0,NNW,3.5,-,N/A,,Clear,340,2013-12-26 16:35:00
10:55 AM,50.0,33.8,54,30.43,8.0,NNE,4.6,-,N/A,,Clear,20,2013-12-26 16:55:00
11:15 AM,51.8,35.6,54,30.42,9.0,Calm,Calm,-,N/A,,Clear,0,2013-12-26 17:15:00
11:35 AM,53.6,37.4,54,30.42,8.0,NW,4.6,-,N/A,,Clear,320,2013-12-26 17:35:00
11:55 AM,53.6,37.4,54,30.40,8.0,NW,3.5,-,N/A,,Clear,320,2013-12-26 17:55:00
12:15 PM,55.4,39.2,54,30.40,8.0,North,6.9,-,N/A,,Clear,10,2013-12-26 18:15:00
12:35 PM,55.4,39.2,54,30.39,8.0,NNW,4.6,-,N/A,,Clear,330,2013-12-26 18:35:00
12:55 PM,55.4,39.2,54,30.38,8.0,NNW,4.6,-,N/A,,Clear,340,2013-12-26 18:55:00
1:15 PM,55.4,39.2,54,30.37,8.0,NW,4.6,-,N/A,,Clear,310,2013-12-26 19:15:00
1:35 PM,57.2,41.0,55,30.36,9.0,Calm,Calm,-,N/A,,Clear,0,2013-12-26 19:35:00
1:55 PM,57.2,42.8,59,30.36,9.0,NNW,3.5,-,N/A,,Clear,340,2013-12-26 19:55:00
2:15 PM,57.2,42.8,59,30.35,8.0,NE,4.6,-,N/A,,Clear,40,2013-12-26 20:15:00
2:35 PM,57.2,42.8,59,30.35,9.0,Calm,Calm,-,N/A,,Clear,0,2013-12-26 20:35:00
2:55 PM,57.2,42.8,59,30.35,8.0,NNW,4.6,-,N/A,,Clear,330,2013-12-26 20:55:00
3:15 PM,57.2,41.0,55,30.34,8.0,NW,3.5,-,N/A,,Clear,310,2013-12-26 21:15:00
3:35 PM,55.4,39.2,54,30.34,9.0,North,6.9,-,N/A,,Clear,350,2013-12-26 21:35:00
3:55 PM,55.4,39.2,54,30.35,9.0,NNW,4.6,-,N/A,,Clear,340,2013-12-26 21:55:00
4:15 PM,55.4,39.2,54,30.36,9.0,NW,5.8,-,N/A,,Clear,320,2013-12-26 22:15:00
4:35 PM,51.8,35.6,54,30.35,9.0,NNW,4.6,-,N/A,,Clear,340,2013-12-26 22:35:00
4:55 PM,48.2,33.8,58,30.36,8.0,NNW,3.5,-,N/A,,Clear,340,2013-12-26 22:55:00
5:15 PM,44.6,32.0,61,30.37,8.0,NW,3.5,-,N/A,,Clear,310,2013-12-26 23:15:00
5:35 PM,42.8,28.4,57,30.37,10.0,NNW,3.5,-,N/A,,Clear,330,2013-12-26 23:35:00
5:55 PM,39.2,26.6,61,30.37,10.0,Calm,Calm,-,N/A,,Clear,0,2013-12-26 23:55:00
6:15 PM,39.2,26.6,61,30.37,10.0,Calm,Calm,-,N/A,,Clear,0,2013-12-27 00:15:00
6:35 PM,35.6,23.0,60,30.38,9.0,Calm,Calm,-,N/A,,Clear,0,2013-12-27 00:35:00
6:55 PM,35.6,23.0,60,30.38,10.0,North,3.5,-,N/A,,Clear,350,2013-12-27 00:55:00
7:15 PM,35.6,23.0,60,30.39,10.0,North,3.5,-,N/A,,Clear,10,2013-12-27 01:15:00
7:35 PM,33.8,21.2,60,30.40,9.0,Calm,Calm,-,N/A,,Clear,0,2013-12-27 01:35:00
7:55 PM,33.8,21.2,60,30.39,9.0,North,4.6,-,N/A,,Clear,10,2013-12-27 01:55:00
8:15 PM,32.0,19.4,60,30.39,9.0,Calm,Calm,-,N/A,,Clear,0,2013-12-27 02:15:00
8:35 PM,32.0,19.4,60,30.39,9.0,Calm,Calm,-,N/A,,Clear,0,2013-12-27 02:35:00
8:55 PM,32.0,19.4,60,30.40,9.0,Calm,Calm,-,N/A,,Clear,0,2013-12-27 02:55:00
9:15 PM,32.0,19.4,60,30.40,8.0,Calm,Calm,-,N/A,,Clear,0,2013-12-27 03:15:00
9:35 PM,32.0,17.6,55,30.40,9.0,Calm,Calm,-,N/A,,Clear,0,2013-12-27 03:35:00
9:55 PM,30.2,17.6,60,30.39,8.0,Calm,Calm,-,N/A,,Clear,0,2013-12-27 03:55:00
10:15 PM,30.2,17.6,60,30.40,7.0,Calm,Calm,-,N/A,,Clear,0,2013-12-27 04:15:00
10:35 PM,30.2,17.6,60,30.40,7.0,Calm,Calm,-,N/A,,Clear,0,2013-12-27 04:35:00
10:55 PM,30.2,17.6,60,30.40,5.0,Calm,Calm,-,N/A,,Haze,0,2013-12-27 04:55:00
11:15 PM,30.2,15.8,55,30.40,5.0,Calm,Calm,-,N/A,,Haze,0,2013-12-27 05:15:00
11:35 PM,28.4,15.8,59,30.40,7.0,Calm,Calm,-,N/A,,Clear,0,2013-12-27 05:35:00
11:55 PM,28.4,14.0,55,30.40,7.0,Calm,Calm,-,N/A,,Clear,0,2013-12-27 05:55:00